Content
SEND FEEDBACK

Daily
Averages
Monthly
Summary
United States of America

UKIAH, CALIFORNIA


Home > North America > United States > California
Elevation: 615 feet     Latitude: 39 08N     Longitude: 123 12W

WEATHER
 
SELECT A DAY
Number of Records: 220,783;   Date Range: 1/1/95 - 11/22/14
 
SHARE

PRINT THIS DATA

[ ← Previous Day ]
WEATHER ALMANAC - JANUARY 6, 2013
[ Next Day → ]
[ °C ]   °F
Weather ElementAverageHighLow
Temperature42.1 °F52 °F (1:56 pm)37 °F (7:56 am)
Dewpoint39.6 °F42.1 °F (12:56 pm)37 °F (7:56 am)
Humidity91.3 %100 % (7:04 am)66 % (1:56 pm)
Barometer30.17 in30.23 in (10:56 pm)30.13 in (2:49 am)
Wind Speed1.1 mph3.5 mph (2:56 am)
Weather ElementAverage
Visibility6.4 mi
Wind DirectionENE (71.8 °)

Weather ElementTotal
Precipitation0.02 in
Heating Degree Days20.5 (Base 65)
Averaged from 39 records on January 6, 2013
WEATHER CONDITIONS BREAKOUT
WIND DIRECTION BREAKOUT
WEATHER BY HOUR - JANUARY 6, 2013
[ °C ]   °F
Local TimeTemperatureDewpointHumidityBarometerVisibilityWind DirectionWind SpeedGust SpeedPrecipitationEventsConditions
2:49 AM41.0 °F39.2 °F93 %30.13 in8.0 miCalm0.01 inRainLight Rain
2:56 AM41.0 °F39.9 °F96 %30.13 in7.0 miNW (320°)3.5 mph0.01 inOvercast
3:56 AM42.1 °F39.9 °F92 %30.14 in10.0 miCalmOvercast
4:28 AM42.8 °F41.0 °F93 %30.14 in7.0 miCalmOvercast
4:56 AM42.1 °F41.0 °F96 %30.14 in6.0 miCalmOvercast
5:19 AM42.8 °F39.2 °F87 %30.14 in9.0 miCalmOvercast
5:56 AM41.0 °F39.9 °F96 %30.14 in10.0 miCalm0.00 inRainLight Rain
6:56 AM39.0 °F37.9 °F96 %30.13 in6.0 miCalm0.00 inScattered Clouds
7:00 AM39.2 °F37.4 °F93 %30.14 in2.5 miCalmScattered Clouds
7:04 AM37.4 °F37.4 °F100 %30.14 in0.8 miCalmMostly Cloudy
7:09 AM37.4 °F37.4 °F100 %30.14 in0.2 miCalmFogFog
7:56 AM37.0 °F37.0 °F100 %30.17 in0.2 miCalmFogFog
8:20 AM37.4 °F37.4 °F100 %30.17 in0.2 miCalmFogFog
8:41 AM39.2 °F39.2 °F100 %30.18 in0.8 miCalmMist
8:53 AM41.0 °F39.2 °F93 %30.18 in10.0 miNNW (340°)3.5 mphScattered Clouds
8:54 AM41.0 °F39.0 °F93 %30.19 in10.0 miNNW (340°)3.5 mphScattered Clouds
9:09 AM41.0 °F39.2 °F93 %30.19 in1.8 miNE (50°)3.5 mphScattered Clouds
9:12 AM39.2 °F39.2 °F100 %30.19 in0.8 miNE (40°)3.5 mphMist
9:18 AM39.2 °F39.2 °F100 %30.20 in0.2 miCalmFogFog
9:46 AM39.2 °F39.2 °F100 %30.20 in0.5 miCalmFogFog
9:56 AM39.9 °F39.0 °F97 %30.21 in0.2 miCalmFogFog
10:31 AM41.0 °F41.0 °F100 %30.21 in0.8 miCalmMist
10:36 AM41.0 °F41.0 °F100 %30.20 in2.0 miCalmOvercast
10:47 AM42.8 °F39.2 °F87 %30.20 in7.0 miCalmOvercast
10:56 AM43.0 °F41.0 °F93 %30.20 in10.0 miCalmMostly Cloudy
11:03 AM42.8 °F41.0 °F93 %30.20 in10.0 miCalmScattered Clouds
11:56 AM48.0 °F41.0 °F77 %30.17 in10.0 miENE (70°)3.5 mphClear
12:56 PM51.1 °F42.1 °F71 %30.15 in10.0 miCalmClear
1:56 PM52.0 °F41.0 °F66 %30.14 in10.0 miCalmClear
2:56 PM51.1 °F42.1 °F71 %30.14 in10.0 miWSW (250°)3.5 mphMostly Cloudy
4:56 PM48.9 °F39.9 °F71 %30.14 in10.0 miWest (280°)3.5 mphClear
5:56 PM45.0 °F39.9 °F82 %30.16 in10.0 miCalmClear
6:56 PM43.0 °F39.9 °F89 %30.19 in10.0 miSSW (200°)3.5 mphPartly Cloudy
7:11 PM44.6 °F41.0 °F87 %30.19 in10.0 miCalmMostly Cloudy
7:56 PM43.0 °F39.9 °F89 %30.19 in9.0 miWest (280°)3.5 mphPartly Cloudy
8:56 PM41.0 °F39.0 °F93 %30.20 in8.0 miCalmClear
9:56 PM39.9 °F37.9 °F93 %30.20 in10.0 miNW (310°)3.5 mphClear
10:56 PM42.1 °F39.0 °F89 %30.23 in10.0 miNW (320°)3.5 mphOvercast
11:56 PM41.0 °F39.0 °F93 %30.22 in10.0 miCalmMostly Cloudy
Hourly data recorded from KUKI, located miles away from Ukiah, California







STORIES FROM OUR PARTNERS